CAPE
0 0 0 0 0 0 0 0 0 0 0 0 1 0 0 0 0 4 115 169 27 122 781 1301 1477 1915 2172 2482 2510 2543 2513 2245
0 0 0 0 0 0 0 0 0 0 0 0 0 0 0 0 0 0 0 44 87 52 6 1118 1461 1707 2229 2643 2624 2723 2844 2883
0 0 0 0 0 0 0 0 0 0 0 0 6 0 0 9 0 59 537 473 530 541 101 1050 1248 1825 2542 2886 2920 3001 3042 3081
0 0 0 0 0 0 0 0 0 0 0 2 0 0 67 75 189 396 618 693 493 618 720 204 283 872 2418 2981 3112 3114 3046 3218
0 0 0 0 7 5 0 0 0 0 0 15 5 74 129 200 180 219 481 461 331 225 484 398 185 571 685 2893 3005 3050 3029 3004
0 0 0 0 0 8 15 3 1 0 0 21 6 79 367 275 142 153 566 561 340 180 0 0 182 408 177 2212 2542 2908 2960 2949
0 0 0 0 0 0 0 18 5 0 3 52 59 68 136 376 370 232 291 685 691 373 1 0 0 71 915 1805 2447 2231 2612 2796
0 0 0 0 0 17 35 8 24 17 8 29 241 187 189 395 485 321 237 386 632 674 337 0 0 427 1078 1979 2793 2142 1977 2291
0 0 0 0 0 0 0 0 13 21 40 72 268 197 123 218 205 449 250 194 298 538 586 561 508 655 802 1304 1781 1990 2879 2054
0 0 0 0 0 0 0 0 0 0 1 101 209 218 78 81 149 244 146 235 245 294 373 383 337 105 380 948 1487 2105 1734 2921
0 0 0 0 0 0 0 0 0 0 0 107 248 214 134 94 105 4 0 102 243 303 392 398 294 160 554 466 756 1706 2253 1969
0 0 0 0 0 0 0 0 9 72 220 184 305 379 232 56 47 53 67 159 282 382 475 508 491 432 239 300 728 1021 1838 2306
9 13 19 7 1 3 2 1 28 134 123 294 257 242 75 0 10 78 57 166 367 588 588 638 669 622 564 652 796 1019 1478 1853
0 0 2 0 0 0 1 0 9 0 225 204 142 153 55 22 4 3 25 287 418 572 609 535 447 396 376 518 871 951 887 1211
0 0 0 0 0 0 0 0 51 231 167 145 64 44 5 69 75 21 62 325 484 626 747 674 635 540 412 334 667 1110 1060 863
0 0 0 0 0 0 0 0 0 3 182 165 208 145 91 287 358 185 144 376 666 759 816 818 738 700 632 492 363 496 774 833
0 0 0 0 0 0 0 0 0 4 14 2 15 87 129 122 133 146 212 243 519 714 736 803 691 559 481 579 620 653 655 1213
0 0 0 0 0 0 0 0 6 5 16 22 20 14 35 30 21 29 19 96 282 751 899 599 589 400 235 386 780 802 720 1193
0 0 0 0 0 0 0 0 0 2 5 28 129 124 97 27 10 21 50 115 436 919 773 620 101 0 99 272 517 716 665 785
CIN
0 0 0 0 0 0 0 0 0 0 0 0 -4 0 0 0 0 -63 -154 -124 -256 -227 -151 -126 -137 -151 -120 -154 -132 -144 -123 -111
0 0 0 0 0 0 0 0 0 0 0 0 0 0 0 0 0 0 0 -332 -217 -158 -154 -97 -106 -95 -104 -136 -131 -139 -117 -101
0 0 0 0 0 0 0 0 0 0 0 0 -45 0 0 -69 0 -91 -149 -211 -252 -267 -159 -101 -124 -91 -91 -108 -109 -117 -102 -89
0 0 0 0 0 0 0 0 0 0 0 -26 0 0 -51 -74 -119 -187 -205 -228 -237 -349 -248 -207 -304 -261 -62 -86 -101 -110 -99 -89
0 0 0 0 -17 -14 0 0 0 0 0 -87 -32 -42 -53 -98 -146 -205 -237 -238 -288 -321 -336 -318 -144 -157 -294 -76 -103 -102 -89 -80
0 0 0 0 0 -9 -10 -15 -19 0 -6 -30 -43 -60 -71 -92 -118 -161 -196 -182 -228 -281 0 0 -200 -208 -333 -85 -81 -88 -106 -93
0 0 0 0 0 0 -12 -27 -38 0 -33 -30 -39 -24 -29 -55 -87 -128 -148 -161 -189 -280 -20 0 0 -394 -181 -124 -76 -54 -69 -91
0 0 0 0 0 -60 -46 -63 -66 -75 -87 -80 -67 -26 -39 -83 -99 -89 -133 -135 -154 -163 -316 -5 0 -298 -200 -100 -48 -41 -54 -79
0 0 0 0 0 0 0 0 -56 -52 -50 -65 -58 -56 -86 -75 -101 -76 -89 -82 -111 -147 -157 -219 -267 -244 -197 -134 -116 -67 -33 -81
0 0 0 0 0 0 0 0 0 0 -30 -47 -63 -65 -116 -183 -127 -144 -178 -95 -81 -180 -246 -232 -210 -256 -241 -149 -69 -94 -117 -61
0 0 0 0 0 0 0 0 0 -17 0 -35 -68 -65 -144 -286 -310 -137 0 -344 -235 -214 -190 -255 -217 -255 -208 -222 -192 -142 -107 -111
0 0 0 0 0 0 0 0 -60 -55 -62 -42 -47 -89 -118 -169 -225 -188 -122 -117 -102 -139 -170 -239 -213 -258 -265 -219 -206 -202 -139 -89
-10 -3 -4 -39 -27 -28 -3 -19 -56 -88 -92 -58 -52 -105 -165 0 -87 -92 -81 -78 -88 -107 -125 -146 -182 -208 -243 -238 -206 -204 -171 -160
0 0 -5 0 0 0 -4 0 -63 0 -104 -74 -91 -101 -119 -124 -126 -110 -164 -99 -95 -124 -159 -208 -216 -207 -212 -222 -180 -194 -232 -218
0 0 0 0 0 0 0 0 -80 -46 -62 -111 -99 -82 -43 -115 -113 -147 -113 -89 -79 -103 -111 -145 -153 -167 -215 -223 -184 -122 -159 -255
0 0 0 0 0 0 0 0 0 -50 -83 -82 -77 -134 -103 -70 -101 -118 -109 -82 -43 -58 -70 -95 -118 -139 -159 -191 -244 -226 -188 -204
0 0 0 0 0 0 0 0 0 -146 -154 -91 -160 -103 -63 -100 -140 -156 -94 -61 -43 -40 -53 -91 -102 -147 -186 -160 -172 -171 -203 -107
0 0 0 0 0 0 0 0 -155 -135 -193 -172 -157 -112 -44 -43 -68 -91 -38 -45 -30 -15 -62 -85 -88 -147 -249 -207 -112 -112 -162 -92
0 0 0 0 0 0 0 0 0 -255 -227 -160 -117 -104 -93 -33 -96 -89 -67 -44 -14 -27 -37 -42 -150 0 -263 -241 -161 -102 -143 -166
Wind_Speed
10 9 8 18 17 17 28 31 31 22 23 23 8 7 9 14 14 14 12 14 7 35 35 21 20 23 20 18 17 17 17 19
24 12 13 15 14 22 22 22 25 24 27 25 7 9 9 12 12 15 13 14 15 14 39 25 18 19 20 17 18 18 18 18
23 10 14 14 12 13 15 16 23 26 20 22 11 9 9 11 15 17 19 21 23 6 35 12 4 17 15 16 16 17 18 19
23 29 25 12 8 10 14 20 19 21 26 16 11 9 8 11 14 17 21 23 22 18 13 8 9 8 27 16 17 17 18 17
28 17 26 24 19 20 21 24 27 25 25 16 11 10 9 10 13 16 20 23 22 16 14 11 19 18 25 17 18 17 17 17
21 25 29 27 30 24 24 23 25 25 19 18 20 22 14 11 13 16 18 22 20 15 11 10 8 6 24 22 10 17 17 17
23 30 30 32 32 29 26 26 27 33 32 25 15 10 8 7 10 14 18 18 18 16 12 5 3 9 21 20 19 16 15 15
23 25 30 31 30 31 33 33 32 34 37 34 13 9 12 12 13 12 13 14 13 16 15 11 9 20 23 20 16 12 13 15
29 32 34 30 29 30 33 33 30 34 36 35 23 13 9 12 14 14 13 17 12 11 12 15 18 21 24 24 24 26 27 13
33 29 23 28 30 32 32 30 31 31 34 26 22 18 11 16 12 5 13 12 17 12 12 15 20 25 25 24 23 33 33 30
22 23 28 31 27 30 32 33 32 32 31 27 27 14 16 16 15 17 20 17 14 17 18 17 23 26 28 30 30 30 31 35
18 21 28 29 33 32 32 33 31 29 29 22 19 16 15 11 7 7 8 12 16 20 23 24 27 27 31 32 32 32 32 34
21 23 25 24 28 30 24 27 30 28 25 24 16 12 15 17 15 15 16 17 18 18 19 22 27 31 35 35 35 35 34 36
24 26 26 26 26 25 25 29 29 29 25 24 22 18 16 17 19 22 25 21 20 22 25 28 31 33 34 37 37 38 39 39
21 22 26 27 28 29 29 29 31 29 25 25 26 27 28 27 25 26 29 27 25 27 29 29 29 31 35 37 37 38 38 39
30 30 32 26 30 32 34 34 34 32 31 28 30 31 32 30 30 30 29 31 32 31 32 33 31 32 33 38 40 40 40 40
32 30 33 32 34 36 38 38 38 38 37 36 37 39 37 37 35 36 37 36 36 36 37 36 36 36 37 38 40 41 40 39
24 27 28 32 37 40 41 41 42 42 43 42 41 42 41 40 40 43 44 42 40 37 36 39 38 39 40 41 40 41 42 39
24 29 30 35 36 40 43 45 48 47 47 49 47 45 46 40 38 40 40 39 38 32 36 39 41 42 41 41 42 43 42 41
Wind_Direction
42 18 42 351 331 330 309 301 305 324 327 297 340 350 3 2 29 41 49 38 128 209 210 159 156 161 159 158 156 155 159 167
354 9 2 0 351 324 318 319 312 308 310 327 359 340 359 20 15 38 34 12 5 231 200 163 146 153 160 158 159 159 159 161
327 355 351 354 358 350 344 333 312 310 321 328 345 354 0 17 9 1 356 4 12 90 237 201 108 137 146 154 153 154 159 163
320 309 326 313 338 338 335 325 327 317 304 334 347 19 7 346 355 3 358 347 349 18 30 272 332 315 191 149 152 152 154 154
319 329 328 339 337 336 327 317 306 314 315 307 5 15 2 357 354 353 353 348 337 352 30 32 354 249 244 158 150 151 150 153
307 313 317 317 312 319 320 318 311 308 323 318 328 338 4 12 4 356 355 350 344 348 9 77 106 146 228 258 156 154 151 155
302 300 303 304 303 309 309 307 308 291 292 308 336 333 334 356 357 0 3 2 360 352 6 37 89 322 269 280 168 163 159 159
321 311 303 305 307 302 300 300 302 295 284 287 321 357 347 341 342 345 336 350 357 357 347 350 318 298 294 300 285 173 168 173
309 302 296 301 298 300 303 303 308 295 297 300 307 293 314 323 335 336 345 333 337 343 349 333 321 313 301 299 294 278 274 252
296 304 306 307 294 296 302 308 311 302 304 307 318 304 293 296 300 323 321 348 303 339 345 339 323 312 308 309 295 284 282 282
305 306 306 304 308 303 303 304 305 307 299 311 304 317 309 306 295 293 300 290 312 320 327 329 312 310 307 303 301 297 293 283
305 301 303 310 307 305 302 300 313 315 320 324 319 308 326 350 335 314 322 328 321 321 320 324 310 310 305 302 297 296 296 292
303 305 313 323 320 317 304 306 314 314 322 325 328 319 311 316 324 323 320 317 322 327 329 320 319 316 302 299 295 293 293 292
307 306 305 329 330 317 316 316 320 314 315 314 318 323 322 312 310 312 308 313 314 314 317 316 315 311 306 295 294 293 290 286
312 310 314 324 322 321 323 318 318 319 315 309 308 300 298 308 311 306 303 306 309 309 313 316 316 312 304 299 296 293 291 287
309 308 311 319 321 323 321 317 316 315 320 312 304 305 301 300 305 297 304 307 304 305 306 307 310 310 307 300 293 290 289 287
306 312 311 310 316 317 315 314 313 309 306 304 303 301 297 296 297 295 297 299 298 299 299 301 304 302 302 301 294 288 287 287
315 321 321 319 315 314 312 309 307 303 300 300 302 297 297 295 293 293 293 294 294 293 293 295 298 298 299 298 295 289 284 286
323 323 325 322 321 316 311 309 302 299 297 295 296 297 297 296 295 294 293 293 292 291 291 294 294 295 299 299 295 287 283 281